Location: Poughquag
(41.6090°N, 73.6820°W)
Time: 22:13:46
(UTC-05:00)

N. Korean satellite - Pass Details

Date: 31 January 2021
Orbit: 451 x 503 km, 97.2° (Epoch: 24 February)

Event Time Altitude Azimuth Distance (km) Brightness Sun altitude
Rises 04:54:23 0° 20° (NNE) 2,482 10.4 -25.0°
Reaches altitude 10° 04:56:34 10° 30° (NNE) 1,598 9.5 -24.6°
Maximum altitude 04:59:43 34° 98° (E) 760 8.1 -24.0°
Drops below altitude 10° 05:02:50 10° 165° (SSE) 1,577 9.3 -23.4°
Sets 05:04:58 0° 175° (S) 2,444 10.2 -23.1°
